11.05.2024;04:00;20
11.05.2024;03:00;18
11.05.2024;02:00;19
11.05.2024;01:00;19
10.05.2024;24:00;19
10.05.2024;23:00;24
10.05.2024;22:00;18
10.05.2024;21:00;18
10.05.2024;20:00;25
10.05.2024;19:00;20
10.05.2024;18:00;13
10.05.2024;17:00;17
10.05.2024;16:00;12
10.05.2024;15:00;11
10.05.2024;14:00;16
10.05.2024;13:00;18
10.05.2024;12:00;21
10.05.2024;11:00;19
10.05.2024;10:00;14
10.05.2024;09:00;13
10.05.2024;08:00;8
10.05.2024;07:00;17
10.05.2024;06:00;16
10.05.2024;05:00;14
10.05.2024;04:00;17
10.05.2024;03:00;16
10.05.2024;02:00;17
10.05.2024;01:00;17
09.05.2024;24:00;19
09.05.2024;23:00;20
09.05.2024;22:00;18
09.05.2024;21:00;16
09.05.2024;20:00;12
09.05.2024;19:00;18
09.05.2024;18:00;16
09.05.2024;17:00;14
09.05.2024;16:00;11
09.05.2024;15:00;13
09.05.2024;14:00;16
09.05.2024;13:00;13
09.05.2024;12:00;13
09.05.2024;11:00;15
09.05.2024;10:00;7
09.05.2024;09:00;3
09.05.2024;08:00;17
09.05.2024;07:00;18
09.05.2024;06:00;21
09.05.2024;05:00;20
09.05.2024;04:00;19
09.05.2024;03:00;13
09.05.2024;02:00;10
09.05.2024;01:00;12
08.05.2024;24:00;16
08.05.2024;23:00;13
08.05.2024;22:00;14
08.05.2024;21:00;12
08.05.2024;20:00;11
08.05.2024;19:00;10
08.05.2024;18:00;8
08.05.2024;17:00;8
08.05.2024;16:00;8
08.05.2024;15:00;6
08.05.2024;14:00;5
08.05.2024;13:00;10
08.05.2024;12:00;14
08.05.2024;11:00;13
08.05.2024;10:00;11
08.05.2024;09:00;10
08.05.2024;08:00;9
08.05.2024;07:00;12
08.05.2024;06:00;11
08.05.2024;05:00;10
08.05.2024;04:00;9
08.05.2024;03:00;13
08.05.2024;02:00;13
08.05.2024;01:00;9
07.05.2024;24:00;9
07.05.2024;23:00;9
07.05.2024;22:00;8
07.05.2024;21:00;8
07.05.2024;20:00;7
07.05.2024;19:00;8
07.05.2024;18:00;10
07.05.2024;17:00;10
07.05.2024;16:00;4
07.05.2024;15:00;3
07.05.2024;14:00;6
07.05.2024;13:00;2
07.05.2024;12:00;2
07.05.2024;11:00;#
07.05.2024;10:00;#
07.05.2024;09:00;9
07.05.2024;08:00;7
07.05.2024;07:00;6
07.05.2024;06:00;6
07.05.2024;05:00;6
07.05.2024;04:00;6
07.05.2024;03:00;5
07.05.2024;02:00;2
07.05.2024;01:00;2
06.05.2024;24:00;2
06.05.2024;23:00;3
06.05.2024;22:00;6
06.05.2024;21:00;7
06.05.2024;20:00;10
06.05.2024;19:00;9
06.05.2024;18:00;8
06.05.2024;17:00;5
06.05.2024;16:00;8
06.05.2024;15:00;9
06.05.2024;14:00;5
06.05.2024;13:00;9
06.05.2024;12:00;6
06.05.2024;11:00;3
06.05.2024;10:00;6
06.05.2024;09:00;8
06.05.2024;08:00;6
06.05.2024;07:00;6
06.05.2024;06:00;5
06.05.2024;05:00;3
06.05.2024;04:00;3
06.05.2024;03:00;3
06.05.2024;02:00;4
06.05.2024;01:00;5
